Regional Weather Roundup
Issued by NWS

Home | Current Version | Previous Version | Graphics & Text | Print | Product List | Glossary Off
Versions: 1 2 3 4 5 6 7 8 9 10 11 12 13 14 15 16 17 18 19 20 21 22 23 24 25 26 27 28 29 30 31 32 33 34 35 36 37 38 39 40 41 42 43 44 45 46 47 48 49 50

000
ASUS43 KTOP 230508
RWRKS

WEATHER ROUNDUP FOR KANSAS
NATIONAL WEATHER SERVICE GOODLAND KS
1200 AM CDT TUE SEP 23 2014

NOTE:  "FAIR" INDICATES FEW OR NO CLOUDS BELOW 12,000 FEET WITH NO
SIGNIFICANT WEATHER AND/OR OBSTRUCTIONS TO VISIBILITY.

KSZ001>006-013>018-027>032-041>047-230600-
NORTHWEST KANSAS

CITY           SKY/WX    TMP DP  RH WIND       PRES   REMARKS
GOODLAND       TSTM      62  56  80 S13G31    30.15R
HAYS           CLOUDY    68  45  42 S13       30.13S
HILL CITY      CLOUDY    69  45  41 S16G26    30.09F
RUSSELL        CLOUDY    67  46  47 S18       30.12F
$$

KSZ061>065-074>080-084>089-230600-
SOUTHWEST KANSAS

CITY           SKY/WX    TMP DP  RH WIND       PRES   REMARKS
DODGE CITY     MOCLDY    67  43  41 S21G30    30.15F
ELKHART          N/A     65  55  70 S12         N/A
GARDEN CITY    PTCLDY    66  47  50 SE17      30.12F
GREAT BEND     CLOUDY    66  45  45 SE12      30.15S
LIBERAL        PTCLDY    70  48  46 S15       30.15F
PRATT          MOCLDY    64  41  42 S12       30.19S
$$

KSZ066>073-081>083-090>101-230600-
SOUTHEAST KANSAS

CITY           SKY/WX    TMP DP  RH WIND       PRES   REMARKS
CHANUTE        CLEAR     58  53  84 SE5       30.21F
COFFEYVILLE    PTCLDY    57  55  93 E6        30.21F
HUTCHINSON     MOCLDY    63  49  60 SE9       30.19S
MEDICINE LODGE   N/A     65  46  50 SE7       30.18F
NEWTON         PTCLDY    57  46  67 SE8       30.22S
PARSONS        CLEAR     55  53  93 E3        30.22F
WICHITA INTL   MOCLDY    64  49  57 SE10      30.19F
WICHITA JABRA  PTCLDY    61  50  67 SE8       30.19F
WICHITA MCCONL CLOUDY    62  50  64 E9        30.20F
WINFIELD       PTCLDY    60  52  74 E5        30.21F
$$

KSZ007>012-019>026-033>040-048>060-102>105-230600-
NORTHEAST KANSAS

CITY           SKY/WX    TMP DP  RH WIND       PRES   REMARKS
CONCORDIA      CLOUDY    63  51  65 SE13      30.16F
EMPORIA        PTCLDY    57  53  86 SE8       30.21S
LAWRENCE       PTCLDY    53  50  89 E3        30.23S
MANHATTAN      PTCLDY    59  51  75 CALM      30.19F
MARYSVILLE     MOCLDY    59  52  77 SE5       30.19F
OLATHE IND     PTCLDY    57  52  83 SE5       30.24S
OLATHE EXE     PTCLDY    58  53  84 CALM      30.22F
SALINA         PTCLDY    63  50  62 SE13      30.17F
TOPEKA BILLARD PTCLDY    58  52  80 E3        30.22S
TOPEKA FORBES  PTCLDY    55  51  86 E5        30.21F
$$


USA.gov is the U.S. government's official web portal to all federal, state and local government web resources and services.